TimeEST,TemperatureF,Dew PointF,Humidity,Sea Level PressureIn,VisibilityMPH,Wind Direction,Wind SpeedMPH,Gust SpeedMPH,PrecipitationIn,Events,Conditions,WindDirDegrees,DateUTC
12:53 AM,16.0,12.9,88,30.53,10.0,Calm,Calm,-,N/A,,Clear,0,2013-01-11 05:53:00
1:53 AM,15.1,12.9,91,30.52,10.0,Calm,Calm,-,N/A,,Clear,0,2013-01-11 06:53:00
2:53 AM,15.1,12.0,88,30.50,10.0,Calm,Calm,-,N/A,,Clear,0,2013-01-11 07:53:00
3:53 AM,17.1,12.9,84,30.46,10.0,NE,4.6,-,N/A,,Clear,40,2013-01-11 08:53:00
4:53 AM,18.0,15.1,88,30.45,10.0,Calm,Calm,-,N/A,,Clear,0,2013-01-11 09:53:00
5:53 AM,18.0,16.0,92,30.42,10.0,NE,3.5,-,N/A,,Clear,40,2013-01-11 10:53:00
6:53 AM,23.0,19.9,88,30.40,10.0,East,3.5,-,N/A,,Clear,90,2013-01-11 11:53:00
7:53 AM,24.1,19.9,84,30.36,10.0,ENE,4.6,-,N/A,,Clear,70,2013-01-11 12:53:00
8:53 AM,26.1,21.9,84,30.33,10.0,East,5.8,-,N/A,,Clear,80,2013-01-11 13:53:00
9:53 AM,28.0,24.1,85,30.28,10.0,East,6.9,-,N/A,,Scattered Clouds,80,2013-01-11 14:53:00
10:53 AM,30.0,23.0,75,30.25,10.0,East,9.2,-,N/A,,Overcast,80,2013-01-11 15:53:00
11:53 AM,30.9,26.1,82,30.21,9.0,NE,8.1,-,0.01,,Overcast,50,2013-01-11 16:53:00
12:53 PM,32.0,27.0,82,30.17,10.0,ENE,11.5,-,0.00,,Overcast,60,2013-01-11 17:53:00
1:53 PM,32.0,28.0,85,30.12,10.0,ENE,10.4,-,0.00,,Mostly Cloudy,60,2013-01-11 18:53:00
2:53 PM,33.1,28.0,82,30.11,10.0,ENE,11.5,-,0.00,,Overcast,60,2013-01-11 19:53:00
3:53 PM,33.1,28.9,85,30.08,10.0,East,6.9,-,0.00,,Overcast,80,2013-01-11 20:53:00
4:53 PM,33.1,28.9,85,30.06,10.0,ENE,3.5,-,N/A,,Overcast,70,2013-01-11 21:53:00
5:53 PM,34.0,30.0,85,30.06,10.0,NE,3.5,-,N/A,,Overcast,50,2013-01-11 22:53:00
6:53 PM,34.0,30.0,85,30.04,10.0,NNE,3.5,-,0.00,,Overcast,30,2013-01-11 23:53:00
7:25 PM,33.8,30.2,87,30.03,10.0,Calm,Calm,-,N/A,,Overcast,0,2013-01-12 00:25:00
7:53 PM,33.1,30.9,92,30.04,9.0,Calm,Calm,-,N/A,,Overcast,0,2013-01-12 00:53:00
8:53 PM,33.1,30.9,92,30.03,10.0,NNE,3.5,-,N/A,,Overcast,30,2013-01-12 01:53:00
9:40 PM,33.8,30.2,87,30.01,2.5,ENE,3.5,-,0.00,Rain,Light Rain,60,2013-01-12 02:40:00
9:53 PM,33.1,30.9,92,30.02,2.5,ENE,3.5,-,0.00,,Overcast,60,2013-01-12 02:53:00
10:18 PM,33.8,30.2,87,30.01,3.0,NE,3.5,-,0.01,,Overcast,50,2013-01-12 03:18:00
10:30 PM,33.8,30.2,87,30.01,2.5,Calm,Calm,-,0.01,,Overcast,0,2013-01-12 03:30:00
10:51 PM,33.8,32.0,93,30.01,1.5,NNE,3.5,-,0.01,Rain,Light Rain,20,2013-01-12 03:51:00
10:53 PM,33.1,32.0,96,30.03,1.5,NNE,3.5,-,0.01,Rain,Light Rain,20,2013-01-12 03:53:00
11:13 PM,33.8,32.0,93,30.01,1.5,Calm,Calm,-,0.01,Rain,Light Rain,0,2013-01-12 04:13:00
11:46 PM,33.8,32.0,93,30.00,1.5,Calm,Calm,-,0.02,Rain,Light Rain,0,2013-01-12 04:46:00
11:53 PM,34.0,32.0,92,30.01,1.8,ENE,3.5,-,0.02,Rain,Light Rain,70,2013-01-12 04:53:00